Hourly Weather Roundup
Issued by NWS Central Illinois

Home | Current Version | Previous Version | Text Only | Print | Product List | Glossary On
Versions: 1 2 3 4 5 6 7 8 9 10 11 12 13 14 15 16 17 18 19 20 21 22 23 24 25 26 27 28 29 30 31 32 33 34 35 36 37 38 39 40 41 42 43 44 45 46 47 48 49 50
000
NZUS43 KILX 041510
HWRILX

AREA WEATHER ROUNDUP
NATIONAL WEATHER SERVICE, LINCOLN IL
900 AM CST WED MAR 04 2015


CITY           SKY/WX    TMP DP  RH WIND       PRES   REMARKS
BLOOMINGTON    MOSUNNY   15   7  71 NW15      30.13R WCI   0
CHAMPAIGN      CLOUDY    16   8  71 NW20      30.11R WCI  -1
DECATUR        CLOUDY    17   8  67 NW14      30.15R WCI   3
EFFINGHAM      CLOUDY    22  13  69 W16       30.16R WCI   8
FLORA          CLOUDY    26  19  75 N16       30.12R WCI  14
GALESBURG      CLOUDY    13   4  68 NW10      30.21R WCI   0
JACKSONVILLE   CLOUDY    17   6  60 NW17      30.20R WCI   2
LACON          CLOUDY    13   4  65 NW13      30.18R WCI  -1
LAWRENCEVILLE  CLOUDY    32  28  85 N16       30.08R WCI  21
LITCHFIELD     CLOUDY    17   8  68 N21       30.17R WCI  -1
$$


CITY           SKY/WX    TMP DP  RH WIND       PRES   REMARKS
LINCOLN        PTSUNNY   17   7  64 NW8G18    30.20R WCI   7
MACOMB         CLOUDY    15   7  71 NW21      30.23R WCI  -3
MATTOON        CLOUDY    19  13  77 NW16      30.12R WCI   4
MT CARMEL AP   CLOUDY    34  28  80 N15       30.06R WCI  24
OLNEY-NOBLE AP CLOUDY    28  23  80 NW18      30.11R WCI  16
PARIS          CLOUDY    20  15  81 NW14      30.11R WCI   6
PEORIA         CLOUDY    16   3  56 NW10G20   30.18R WCI   4
PONTIAC        CLOUDY    15   9  76 NW14      30.14R WCI   0
RANTOUL        PTSUNNY   17  10  74 NW18      30.11R WCI   1
ROBINSON       CLOUDY    29  24  82 NW17      30.10R WCI  17
SPRINGFIELD    CLOUDY    17   5  59 NW12      30.18R WCI   4
TAYLORVILLE    CLOUDY    18   9  68 NW15G21   30.17R WCI   3
$$

...REGIONAL REPORTS...


CITY           SKY/WX    TMP DP  RH WIND       PRES   REMARKS
CHICAGO O`HARE CLOUDY    18   9  68 NW14      30.07R WCI   4
KANKAKEE       SUNNY     18  11  74 NW14      30.10R WCI   4
MOLINE         PTSUNNY   14   1  56 NW15      30.21R WCI  -1
MOUNT VERNON   CLOUDY    28  19  69 N8        30.11R WCI  20
PITTSFIELD     CLOUDY    18   5  58 NW14G21   30.23R WCI   4
QUINCY         CLOUDY    16   3  56 NW16      30.24R WCI   1
ROCKFORD       PTSUNNY   13   2  61 NW16      30.14R WCI  -3
$$


CITY           SKY/WX    TMP DP  RH WIND       PRES   REMARKS
BURLINGTON     CLOUDY    14   2  58 N15       30.23R WCI  -1
CEDAR RAPIDS   CLOUDY     8  -1  66 NW16      30.22R WCI -10
DES MOINES     PTSUNNY   15  -2  46 NW12      30.29R WCI   2
KIRKSVILLE     NOT AVBL
OTTUMWA        SUNNY     13   0  56 N18       30.27R WCI  -4
ST LOUIS       CLOUDY    22   9  57 N15       30.21R WCI   9
$$


CITY           SKY/WX    TMP DP  RH WIND       PRES   REMARKS
TERRE HAUTE    CLOUDY    25  19  78 NW16      30.08R WCI  12
EVANSVILLE     LGT RAIN  36  31  82 N10       30.05R FOG     WCI  28
INDIANAPOLIS   CLOUDY    32  26  78 NW12      30.01R FOG     WCI  23
LAFAYETTE      PTSUNNY   22  18  85 NW14      30.06R WCI   9
MADISON        MOSUNNY   12  -4  48 NW16G24   30.11R WCI  -5
MILWAUKEE      MOSUNNY   15  -1  49 NW15G23   30.07R WCI   0
$$





USA.gov is the U.S. government's official web portal to all federal, state and local government web resources and services.